User: anonymous   Login
Location: Nairn
(57.5833°N, 3.8667°W)
Time: 14:57:30
(UTC+00:00)
Language:

Explorer 11/Cluster Stage 4 - Orbit

View from above orbital plane
View from above orbital plane
View from above satellite
View from above satellite

Ground track
Ground track

The orbit data is extracted from the following two-line orbital elements,

1 00107U 61013A   21342.80186961  .00000787  00000-0  86793-4 0  9999
2 00107  28.7905  14.4555 0544715 354.0206   5.4066 14.09468141 42376
Epoch (UTC): 08 December 2021 19:14:41
Eccentricity: 0.0544715
inclination: 28.7905°
perigee height: 467 km
apogee height: 1255 km
right ascension of ascending node: 14.4555°
argument of perigee: 354.0206°
revolutions per day: 14.09468141
mean anomaly at epoch: 5.4066°
orbit number at epoch: 4237

The dashed part of the orbit path shows where the satellite is in the earth's shadow,  

DLR